STARLINK-11530 [DTC] (62562 NORAD) Tracking and Keplerian Element Data

This shows tracking and keplerian element data for the satellite.

Feedback or suggestion? Click here.




ElementValue
Catalog62562
NameSTARLINK-11530 [DTC]
Epoch Orbit493
Epoch Day35.03334309
Epoch Year2025
RAAN26.4954
Inclination42.9985
Eccentricity0.0001457
Argument of Perigee242.1845
Mean Anonmoly117.8878
Mean Motion15.77869061
Decay Rate-2.597E-05
L11 62562U 25006J 25035.03334309 -.00002597 00000+0 -12054-4 0 9994
L22 62562 42.9985 26.4954 0001457 242.1845 117.8878 15.77869061 4939



Live tracking and technical data element details for STARLINK-11530 [DTC] (NORAD 62562). STARLINK-11530 [DTC] can be tracked NOW for your location showing map with azimuth and elevation plus other details from your city location.







IsCatalogInMostPopularTable: catalog: 62562, numindb: 12
Update: records affected: 1



GetName: 62562 STARLINK-11530 [DTC]

Hit Count: updated at: Sun, 18 May 2025 22:02:04 GMT